This demonstration page uses our WeatherBlox Daily Observations layout. Learn more.

Left ArrowRight Arrow

Hourly Observations for May 4, 2017

Temp ( °F °C ) Dew Point ( °F °C ) Humidity (%) Winds ( mph kmh ) Pressure ( in mb ) Visibility ( mi km ) Precip ( " mm )
12:54 am 00:54 Clear 48 8.9 45 7.2 89 89 NW 5 7 30.13 1020 10 16.0934 0.01 0.254
1:54 am 01:54 Clear 47 8.3 45 7.2 93 93 NNW 7 11 30.12 1020 10 16.0934 0 0
2:54 am 02:54 Clear 48 8.9 46 7.8 93 93 NW 9 15 30.1 1019 10 16.0934 0 0
3:54 am 03:54 Clear 47 8.3 44 6.7 90 90 NNW 8 13 30.09 1019 10 16.0934 0 0
4:54 am 04:54 Clear 46 7.8 43 6.1 89 89 NNW 5 7 30.09 1019 10 16.0934 0 0
5:54 am 05:54 Clear 43 6.1 41 5 93 93 Calm 30.09 1019 9 14.48406 0 0
6:54 am 06:54 Sunny 45 7.2 42 5.6 90 90 NNW 6 9 30.09 1019 9 14.48406 0 0
7:54 am 07:54 Sunny 50 10 43 6.1 77 77 NNW 13 20 30.11 1020 10 16.0934 0 0
8:54 am 08:54 Sunny 55 12.8 44 6.7 67 67 N 12 19 30.11 1020 10 16.0934 0 0
9:54 am 09:54 Sunny 61 16.1 45 7.2 56 56 N 14 22 30.12 1020 10 16.0934 0 0
10:54 am 10:54 Sunny 65 18.3 42 5.6 43 43 N 16 26 30.12 1020 10 16.0934 0 0
11:54 am 11:54 Sunny 66 18.9 39 3.9 37 37 NNE 20 31 30.12 1020 10 16.0934 0 0
12:54 pm 12:54 Mostly Sunny 68 20 39 3.9 35 35 N 22 35 30.1 1019 10 16.0934 0 0
1:54 pm 13:54 Partly Cloudy 68 20 38 3.3 33 33 N 14 22 30.09 1019 10 16.0934 0 0
2:54 pm 14:54 Mostly Cloudy 68 20 37 2.8 32 32 N 13 20 30.08 1019 10 16.0934 0 0
3:54 pm 15:54 Partly Cloudy 71 21.7 38 3.3 30 30 NNE 14 22 30.06 1018 10 16.0934 0 0
4:54 pm 16:54 Partly Cloudy 71 21.7 37 2.8 29 29 N 17 28 30.06 1018 10 16.0934 0 0
5:54 pm 17:54 Mostly Cloudy 71 21.7 38 3.3 30 30 N 14 22 30.06 1018 10 16.0934 0 0
6:54 pm 18:54 Sunny 69 20.6 37 2.8 31 31 N 16 26 30.05 1018 10 16.0934 0 0
7:54 pm 19:54 Sunny 63 17.2 39 3.9 41 41 N 9 15 30.05 1018 10 16.0934 0 0
8:54 pm 20:54 Clear 53 11.7 40 4.4 61 61 N 6 9 30.08 1019 10 16.0934 0 0
9:54 pm 21:54 Clear 58 14.4 39 3.9 50 50 NNW 6 9 30.08 1019 10 16.0934 0 0
10:54 pm 22:54 Clear 49 9.4 40 4.4 71 71 NNW 5 7 30.08 1019 10 16.0934 0 0
11:54 pm 23:54 Clear 47 8.3 40 4.4 77 77 NNW 6 9 30.06 1018 10 16.0934 0 0

Powered by AerisWeather